Regional Weather Roundup
Issued by NWS

Home | Current Version | Previous Version | Text Only | Print | Product List | Glossary Off
Versions: 1 2 3 4 5 6 7 8 9 10 11 12 13 14 15 16 17 18 19 20 21 22 23 24 25 26 27 28 29 30 31 32 33 34 35 36 37 38 39 40 41 42 43 44 45 46 47 48 49 50

000
ASUS43 KOAX 210710
RWRNE

WEATHER ROUNDUP FOR NEBRASKA
NATIONAL WEATHER SERVICE OMAHA NE
100 AM CST SUN JAN 21 2018

NOTES: SATELLITE DATA IS BEING USED TO AUGMENT CLOUD COVER ABOVE
       12000 FEET.
       "FAIR" INDICATES FEW OR NO CLOUDS BELOW 12,000 FEET WITH NO
       SIGNIFICANT WEATHER AND/OR OBSTRUCTIONS TO VISIBILITY.


NEZ001>004-019>022-054>056-210800-
NEBRASKA PANHANDLE

CITY           SKY/WX    TMP DP  RH WIND       PRES   REMARKS
SCOTTSBLUFF    CLOUDY    31  30  96 NE13      29.89S WCI  21
ALLIANCE       CLOUDY    30  30 100 NE15      29.88S FOG     WCI  19
CHADRON        LGT SNOW  31  30  96 NE13      29.95R VSB 1   WCI  21
GORDON         FLURRIES  32  30  94 NE10      29.91F WCI  24
KIMBALL        CLOUDY    30  28  94 NE9       29.84F WCI  21
SIDNEY         CLOUDY    30  28  92 NE10      29.85R WCI  21
$$

NEZ057>060-069>072-079>082-210800-
SOUTHWEST NEBRASKA

CITY           SKY/WX    TMP DP  RH WIND       PRES   REMARKS
NORTH PLATTE   PTCLDY    32  28  85 NE15      29.84S WCI  22
IMPERIAL       CLOUDY    32  29  88 NE14      29.82F WCI  22
LEXINGTON      CLOUDY    33  29  85 NE9       29.82F WCI  25
MCCOOK         MOCLDY    30  27  88 N13       29.79S WCI  20
OGALLALA       CLOUDY    35  31  87 NE10      29.85S WCI  27
$$

NEZ005>010-023>029-035>040-094-210800-
NORTH CENTRAL NEBRASKA

CITY           SKY/WX    TMP DP  RH WIND       PRES   REMARKS
VALENTINE      CLOUDY    35  31  85 N12       29.93S WCI  27
AINSWORTH      CLOUDY    33  33 100 N9        29.91S WCI  26
BROKEN BOW     MOCLDY    33  28  81 N13       29.84F WCI  24
O`NEILL        CLOUDY    32  32  99 N9        29.90S WCI  24
ORD            CLOUDY    33  30  88 N12       29.84F WCI  24
THEDFORD       CLOUDY    35  34  97 N14       29.89S FOG     WCI  25
$$

NEZ041-046>049-061>064-073>077-083>087-210800-
SOUTH CENTRAL NEBRASKA

CITY           SKY/WX    TMP DP  RH WIND       PRES   REMARKS
GRAND ISLAND   CLOUDY    34  31  88 NE10      29.83F WCI  26
AURORA         CLOUDY    36  31  83 N10       29.82F WCI  28
HASTINGS       CLOUDY    35  30  82 NE13      29.81F WCI  26
HEBRON         CLOUDY    36  36  98 CALM      29.79S FOG
HOLDREGE       CLOUDY    34  32  93 NE12      29.79F WCI  25
KEARNEY        CLOUDY    34  30  85 NE13      29.81F WCI  25
YORK           MOCLDY    37  32  81 N10       29.83S WCI  30
$$

NEZ011>018-030>034-042>045-210800-
NORTHEAST NEBRASKA

CITY           SKY/WX    TMP DP  RH WIND       PRES   REMARKS
NORFOLK        CLOUDY    34  28  79 N6        29.85F WCI  29
ALBION         CLOUDY    33  30  88 N12       29.85F WCI  25
BLAIR          CLOUDY    40  37  89 NE8       29.84S WCI  34
COLUMBUS       CLOUDY    35  30  82 NE8       29.85F WCI  29
FREMONT        CLOUDY    37  32  84 N3        29.86S
TEKAMAH        CLOUDY    35  29  78 N13       29.86F WCI  26
WAYNE          CLOUDY    31  30  96 N9        29.86F WCI  23
$$

NEZ050>053-065>068-078-088>093-210800-
SOUTHEAST NEBRASKA

CITY           SKY/WX    TMP DP  RH WIND       PRES   REMARKS
LINCOLN        CLOUDY    41  37  86 NE8       29.84S
OMAHA EPPLEY   CLOUDY    38  35  89 N6        29.85F WCI  33
BEATRICE       FOG       37  37  99 NE7       29.79F VSB 1/4 WCI  32
FALLS CITY     CLOUDY    37  37 100 E6        29.80F FOG     WCI  32
NEBRASKA CITY  FOG       38  38 100 NE3       29.83F VSB 1/4
PLATTSMOUTH    CLOUDY    40  39  98 NE3       29.84S FOG
$$

NEZ044-045-051>053-067-210800-
OMAHA AREA

CITY           SKY/WX    TMP DP  RH WIND       PRES   REMARKS
OMAHA EPPLEY   CLOUDY    38  35  89 N6        29.85F WCI  33
BLAIR          CLOUDY    40  37  89 NE8       29.84S WCI  34
FREMONT        CLOUDY    37  32  84 N3        29.86S
MILLARD        CLOUDY    43  39  86 CALM      29.84S
OFFUTT AFB     CLOUDY    40  37  89 NE3       29.83F
PLATTSMOUTH    CLOUDY    40  39  98 NE3       29.84S FOG
WAHOO          CLOUDY    38  32  80 N9        29.84F WCI  31
$$




USA.gov is the U.S. government's official web portal to all federal, state and local government web resources and services.